TimeEST,TemperatureF,Dew PointF,Humidity,Sea Level PressureIn,VisibilityMPH,Wind Direction,Wind SpeedMPH,Gust SpeedMPH,PrecipitationIn,Events,Conditions,WindDirDegrees,DateUTC
12:56 AM,41.0,18.0,40,30.06,10.0,WNW,10.4,-,N/A,,Clear,300,2012-11-09 05:56:00
1:56 AM,39.9,21.9,49,30.08,10.0,WNW,9.2,-,N/A,,Clear,300,2012-11-09 06:56:00
2:56 AM,39.0,25.0,57,30.09,10.0,WNW,10.4,-,N/A,,Clear,300,2012-11-09 07:56:00
3:56 AM,37.0,26.1,65,30.11,10.0,West,9.2,-,N/A,,Clear,280,2012-11-09 08:56:00
4:56 AM,37.9,28.0,68,30.13,10.0,West,10.4,-,N/A,,Clear,270,2012-11-09 09:56:00
5:56 AM,37.0,28.0,70,30.15,10.0,WSW,6.9,-,N/A,,Clear,250,2012-11-09 10:56:00
7:56 AM,39.0,30.0,70,30.19,10.0,WSW,3.5,-,N/A,,Clear,240,2012-11-09 12:56:00
8:56 AM,44.1,30.9,60,30.19,10.0,West,8.1,-,N/A,,Clear,280,2012-11-09 13:56:00
9:56 AM,48.0,32.0,54,30.21,10.0,NW,10.4,-,N/A,,Clear,310,2012-11-09 14:56:00
10:56 AM,48.9,30.9,50,30.20,10.0,NNW,13.8,21.9,N/A,,Mostly Cloudy,330,2012-11-09 15:56:00
11:56 AM,52.0,30.9,45,30.19,10.0,NW,10.4,17.3,N/A,,Partly Cloudy,310,2012-11-09 16:56:00
12:56 PM,53.1,30.9,43,30.18,10.0,NW,12.7,17.3,N/A,,Partly Cloudy,320,2012-11-09 17:56:00
1:56 PM,54.0,30.9,41,30.16,10.0,NNW,10.4,-,N/A,,Clear,330,2012-11-09 18:56:00
2:56 PM,55.0,30.9,40,30.16,10.0,North,9.2,-,N/A,,Clear,350,2012-11-09 19:56:00
3:56 PM,55.0,30.9,40,30.16,10.0,NW,6.9,-,N/A,,Clear,320,2012-11-09 20:56:00
4:56 PM,51.1,32.0,48,30.16,10.0,West,3.5,-,N/A,,Clear,280,2012-11-09 21:56:00
5:56 PM,46.9,33.1,59,30.18,10.0,Calm,Calm,-,N/A,,Clear,0,2012-11-09 22:56:00
6:56 PM,42.1,33.1,70,30.19,10.0,Calm,Calm,-,N/A,,Clear,0,2012-11-09 23:56:00
7:56 PM,42.1,33.1,70,30.20,10.0,Calm,Calm,-,N/A,,Clear,0,2012-11-10 00:56:00
8:56 PM,39.9,34.0,79,30.21,10.0,Calm,Calm,-,N/A,,Clear,0,2012-11-10 01:56:00
9:56 PM,39.9,33.1,77,30.22,10.0,Calm,Calm,-,N/A,,Clear,0,2012-11-10 02:56:00
10:56 PM,37.9,33.1,83,30.23,10.0,Calm,Calm,-,N/A,,Clear,0,2012-11-10 03:56:00
11:56 PM,37.0,32.0,82,30.24,10.0,Calm,Calm,-,N/A,,Clear,0,2012-11-10 04:56:00